Find OneWeb SL0082

NORAD ID: 45452 Int'l Des: 2020-020 Owner: ONEWEB Country: UK Constellation: oneweb operational
LEOCIRCULARPOLARONEWEB_TYPE

实时位置

正在加载3D地球...

关于 OneWeb SL0082

正在加载描述...

即将过境

Passes for default location (London). Set your location on the main map for personalized predictions.

高度历史

Loading altitude history...

两行轨道根数

1 45452U 20020AE 26106.53281443 -.00000326 00000-0 -95560-3 0 9990
2 45452 87.8925 33.3077 0001535 81.3584 278.7718 13.11417084294596
Epoch: Apr 16, 2026 • Age: 29 hours

当前状态

高度 1227.5 km
速度 7.24 km/s
星下点 -25.59°S, 83.15°W
发射日期 Mar 21, 2020
运行时间 6 years
类型 internet

技术详情

分类 Payload
质量 148.00 kg
干质量 140.00 kg
总质量 148.00 kg
长度 1.30 m
直径 1.00 m
跨度 5.00 m
形状 Trapezoid+2 pan
制造商 ONEWUS
平台类型 ARROW
阶段状态 In Orbit
所有者/国家 ONEWEB/UK

Most Searched